This demonstration page uses our WeatherBlox Daily Observations layout. Learn more.

Left ArrowRight Arrow

44.8408, -93.29828

Hourly Observations for November 15, 2016

Temp ( °F °C ) Dew Point ( °F °C ) Humidity (%) Winds ( mph kmh ) Pressure ( in mb ) Visibility ( mi km ) Precip ( " mm )
12:53 am 00:53 Clear with Mist and Fog 39 3.9 36 2.2 89 89 Calm 29.96 1014 5 8 0.00 0.00
1:07 am 01:07 Mostly Cloudy 39 3.9 36 2.2 89 89 Calm 30.00 1016 7 11 0.00 0.00
1:17 am 01:17 Mostly Clear 38 3.3 36 2.2 93 93 Calm 30.00 1016 7 11 0.00 0.00
1:29 am 01:29 Clear 39 3.9 36 2.2 89 89 Calm 30.00 1016 7 11 0.00 0.00
1:53 am 01:53 Clear 39 3.9 37 2.8 93 93 SSW 3 6 29.96 1015 7 11 0.00 0.00
2:22 am 02:22 Clear with Mist and Fog 36 2.2 34 1.1 93 93 SE 5 7 30.00 1016 6 10 0.00 0.00
2:49 am 02:49 Mostly Cloudy with Fog 34 1 34 1 100 100 Calm 30.00 1016 1 1 0.00 0.00
2:53 am 02:53 Mostly Cloudy with Fog 34 1.1 33 0.6 97 97 Calm 29.95 1014 0 0 0.00 0.00
3:12 am 03:12 Mostly Cloudy with Mist and Fog 36 2 34 1 93 93 Calm 30.00 1016 1 2 0.00 0.00
3:19 am 03:19 Mostly Cloudy with Mist and Fog 36 2.2 34 1.1 93 93 SW 3 6 30.00 1016 2 3 0.00 0.00
3:37 am 03:37 Mostly Cloudy with Mist and Fog 36 2.2 35 1.7 97 97 Calm 30.00 1016 5 8 0.00 0.00
3:53 am 03:53 Mostly Cloudy with Mist and Fog 37 2.8 35 1.7 93 93 SSW 3 6 29.94 1014 5 8 0.00 0.00
4:22 am 04:22 Mostly Cloudy with Mist and Fog 37 2.8 36 2.2 96 96 Calm 29.97 1015 5 8 0.00 0.00
4:53 am 04:53 Cloudy with Mist and Fog 37 2.8 35 1.7 93 93 S 5 7 29.93 1014 5 8 0.00 0.00
5:53 am 05:53 Cloudy with Mist and Fog 38 3.3 36 2.2 93 93 Calm 29.93 1014 5 8 0.00 0.00
6:53 am 06:53 Cloudy 40 4.4 37 2.8 89 89 SE 5 7 29.91 1013 7 11 0.00 0.00
7:53 am 07:53 Partly Cloudy with Mist and Fog 40 4.4 37 2.8 89 89 SSE 8 13 29.90 1012 6 10 0.00 0.00
8:53 am 08:53 Partly Cloudy 42 5.6 39 3.9 89 89 SSE 7 11 29.88 1012 9 14 0.00 0.00
9:53 am 09:53 Partly Cloudy 45 7.2 40 4.4 83 83 S 7 11 29.87 1012 10 16 0.00 0.00
10:53 am 10:53 Mostly Cloudy 49 9.4 41 5 74 74 VRB 3 6 29.86 1011 10 16 0.00 0.00
11:53 am 11:53 Mostly Cloudy 52 11.1 40 4.4 64 64 SW 12 19 29.82 1010 10 16 0.00 0.00
12:53 pm 12:53 Mostly Cloudy 52 11.1 40 4.4 64 64 W 10 17 29.83 1010 10 16 0.00 0.00
1:53 pm 13:53 Mostly Cloudy 54 12.2 41 5 62 62 WNW 7 11 29.82 1010 10 16 0.00 0.00
2:53 pm 14:53 Partly Cloudy 54 12.2 41 5 62 62 WSW 6 9 29.82 1010 10 16 0.00 0.00
3:53 pm 15:53 Partly Cloudy 54 12.2 41 5 62 62 W 6 9 29.83 1010 10 16 0.00 0.00
4:53 pm 16:53 Partly Cloudy 52 11.1 41 5 66 66 W 6 9 29.85 1011 10 16 0.00 0.00
5:53 pm 17:53 Partly Cloudy 52 11.1 41 5 66 66 WSW 3 6 29.88 1012 10 16 0.00 0.00
6:53 pm 18:53 Partly Cloudy 49 9.4 40 4.4 71 71 Calm 29.88 1012 10 16 0.00 0.00
7:53 pm 19:53 Mostly Clear 48 8.9 40 4.4 74 74 NW 5 7 29.89 1012 10 16 0.00 0.00
8:53 pm 20:53 Clear 46 7.8 39 3.9 77 77 NW 8 13 29.91 1013 10 16 0.00 0.00
9:53 pm 21:53 Clear 45 7.2 38 3.3 77 77 WNW 9 15 29.91 1013 10 16 0.00 0.00
10:53 pm 22:53 Clear 44 6.7 37 2.8 76 76 NW 7 11 29.92 1013 10 16 0.00 0.00
11:53 pm 23:53 Mostly Clear 43 6.1 35 1.7 74 74 Calm 29.91 1013 10 16 0.00 0.00

Powered by AerisWeather